STARLINK-11363, 62012

Orbit data source: Space-Track

STARLINK-11363, 62012 is a payload satellite owned by SpaceX/Seattle (US) in LEO that was launched on Mon, 18 Nov 2024 UTC via an FALCON 9 launch vehicle from the Air Force Western Test Range (AFWTR). Payload-class satellites include a variety of spacecraft equipped with specific instruments for various scientific and technological missions. These include communications satellites like Starlink; space stations such as the ISS; scientific satellites like the Hubble; Earth observation satellites from companies like Planet Labs, Umbra, and HawkEye 360; GPS; miniature CubeSats for education and research; and military/defense satellites.

Loading next visibility...
Identifier
62012, 2024-213E
Orbit
LEO
Country
Flag of USUS
Related business
Manufacturer
SpaceX/Seattle
Mission
Operational Commercial Communications
Bus & Motor
STARLINK V2MD, Unknown motor
Mass
960 kg wet, ~910 kg dry
Launch date (UTC)
2024-11-18 (1 year ago)
Launch vehicle
FALCON 9
Launch site
Air Force Western Test Range (AFWTR)
Object type
Payload
Rocket body
Debris
Shape & HBR
Box + 2 Pan, 18.1 m
Radar Cross Section
36.964 m², Large (>1 m²)

Expand to show TLE details & history
Last TLE update: 13 hours ago

TLE from 13 hours ago
0 STARLINK-11363
1 62012U 24213E   25348.29436393  .00241461  00000-0  19350-2 0  9992
2 62012  53.1563 102.1744 0003688  86.2223 273.9216 15.69774764 61501
Epoch: 2025-12-14T07:03Z
TLE epoch observation values (Epoch: 2025-12-14T07:03:53.043Z)
Latitude
-0.00007°
Longitude
-87.00601°
Altitude
360.287 km
Speed
7.694 km/s
True Right ascension
06h 48m 41s
True Declination
0° 00' 00"
Sunlit
Object was in full shadow at epoch
Visualization orbit readout
Latitude
Unknown
Longitude
Unknown
Altitude
Unknown
Speed
Unknown
Apparent Right ascension
Unknown
Apparent Declination
Unknown
Sunlit
N/A
Visualization observer readout
Local Sidereal Time
18:32:31
Azimuth
Unknown
Elevation
Unknown
Doppler factor
Unknown
Orbital elements
Apogee altitude
362.288 km
Perigee altitude
357.318 km
Semi-major axis
6,737.94 km
Eccentricity
0.00037
Inclination
53.1563°
RAAN
102.1744°
Arg. of periapsis
86.2223°
True anomaly
273.87944°
Mean anomaly
273.9216°
Eccentric anomaly
273.90052°
Mean motion
3.92421 °/min
Orbital period
91.74 mins
BSTAR
0.001935
Loading maneuver chart data...
Computing Atmospheric mass density...
Loading historical data...
Loading historical data...
Loading historical data...
Loading historical data...
Loading historical data...
Loading historical data...
Loading historical data...

Documentation

Showing up to 5 results
|